Location: Bucharest
(44.4268°N, 26.1025°E)
Time: 19:43:02
(UTC+03:00)

CUBESAT XI-V - Pass Details

Date: 04 July 2022
Orbit: 668 x 690 km, 98.1° (Epoch: 18 August)

Event Time Altitude Azimuth Distance (km) Brightness Sun altitude
Exits shadow 02:50:06 31° 155° (SSE) 1,175 ? -19.6°
Maximum altitude 02:52:17 76° 75° (ENE) 697 ? -19.4°
Drops below altitude 10° 02:56:52 10° 350° (N) 2,107 ? -19.1°
Sets 02:59:07 0° 349° (N) 3,024 ? -19.0°
